map of DAM home
Great Circle Mapper logo
DAM - Airport
Location
City:  Damascus, Syrian Arab Republic (Syria)
ICAO / IATA:OSDI / DAM

Details
Type:Airport (Aerodrome, Airfield)
Use:Public/Civil, Military, International (customs port of entry)
Latitude:3324'38"N (33.410636)
Longitude:3630'51"E (36.514267)
Datum:WGS 1984
Elevation:2020 ft (616 m)
Variation:4.65E (WMM2015 magnetic declination)
0.08 annual change
Runways:2
Longest:11811 × 148 ft (3600 × 45 m), paved

Time
Time Zone:UTC+2 (DST+3)
Local Time:

Weather
METAR:OSDI 060700Z 07010KT CAVOK 11/M07 Q1028
TAF:OSDI 052300Z 0600/0706 VRB03KT CAVOK
TEMPO 0600/0607 VRB03KT 3000 BR PROB30
TEMPO 0602/0606 VRB03KT 0200 FG SCT007
BECMG 0607/0609 06010KT 9999 FEW030
BECMG 0618/0620 VRB03KT CAVOK

Related Locations
Nearby:
Farthest:NTAV: 11729 mi / 18875 km
Raivavae, Tubuai Islands, Austral Islands, PF

Find:

   beyond  
but within

Other Information
Maps:
NOTAMs:
Links:
Sources:

  
flag of Syrian Arab Republic (Syria)   

Sectional Chart

Flight Planning
at skyvector.com

Satellite Image

Google Maps Satellite View

 

Copyright © 2004-2015 Karl L. Swartz. All rights reserved.
The Great Circle Mapper name and logo are trademarks of the Great Circle Mapper.
All other trademarks mentioned herein belong to their respective owners.
Please see credits for attibutions and further copyright information.

  Follow gcmap on Facebook Follow gcmap on Twitter Follow gcmap on Google+

hCard Microformat

Geo Microformat